date,time,press
2018-03-01,00:00,888.5
2018-03-01,01:00,900.1
2018-03-01,02:00,898.4
2018-03-01,03:00,910.5
2018-03-01,04:00,910.8
2018-03-01,05:00,919.6
2018-03-01,06:00,920.5
2018-03-01,07:00,921.7
2018-03-01,08:00,864.9
2018-03-01,09:00,-999
2018-03-01,10:00,-999
2018-03-01,11:00,-999
2018-03-01,12:00,-999
2018-03-01,13:00,-999
2018-03-01,14:00,-999
2018-03-01,15:00,879.4
2018-03-01,16:00,-999
2018-03-01,17:00,-999
2018-03-01,18:00,-999
2018-03-01,19:00,-999
2018-03-01,20:00,-999
2018-03-01,21:00,860.2
2018-03-01,22:00,880.1
2018-03-01,23:00,-999
2018-03-02,00:00,894.5
2018-03-02,01:00,898.3
2018-03-02,02:00,912.3
2018-03-02,03:00,919
2018-03-02,04:00,919.4
2018-03-02,05:00,921.3
2018-03-02,06:00,927.7
2018-03-02,07:00,928.2
2018-03-02,08:00,874
2018-03-02,09:00,-999
2018-03-02,10:00,-999
2018-03-02,11:00,-999
2018-03-02,12:00,-999
2018-03-02,13:00,-999
2018-03-02,14:00,-999
2018-03-02,15:00,-999
2018-03-02,16:00,-999
2018-03-02,17:00,-999
2018-03-02,18:00,-999
2018-03-02,19:00,-999
2018-03-02,20:00,-999
2018-03-02,21:00,-999
2018-03-02,22:00,852
2018-03-02,23:00,869.5
2018-03-03,00:00,887.1
2018-03-03,01:00,898.4
2018-03-03,02:00,899.8
2018-03-03,03:00,906.4
2018-03-03,04:00,913.1
2018-03-03,05:00,916.3
2018-03-03,06:00,914.3
2018-03-03,07:00,910.9
2018-03-03,08:00,859
2018-03-03,09:00,-999
2018-03-03,10:00,-999
2018-03-03,11:00,-999
2018-03-03,12:00,-999
2018-03-03,13:00,-999
2018-03-03,14:00,-999
2018-03-03,15:00,-999
2018-03-03,16:00,-999
2018-03-03,17:00,-999
2018-03-03,18:00,-999
2018-03-03,19:00,-999
2018-03-03,20:00,-999
2018-03-03,21:00,-999
2018-03-03,22:00,-999
2018-03-03,23:00,854.1
2018-03-04,00:00,865.5
2018-03-04,01:00,885.3
2018-03-04,02:00,893.3
2018-03-04,03:00,893.1
2018-03-04,04:00,897.9
2018-03-04,05:00,908
2018-03-04,06:00,917.5
2018-03-04,07:00,907.9
2018-03-04,08:00,-999
2018-03-04,09:00,-999
2018-03-04,10:00,-999
2018-03-04,11:00,-999
2018-03-04,12:00,-999
2018-03-04,13:00,-999
2018-03-04,14:00,-999
2018-03-04,15:00,-999
2018-03-04,16:00,-999
2018-03-04,17:00,-999
2018-03-04,18:00,-999
2018-03-04,19:00,-999
2018-03-04,20:00,-999
2018-03-04,21:00,-999
2018-03-04,22:00,-999
2018-03-04,23:00,864.3
2018-03-05,00:00,881.7
2018-03-05,01:00,891.6
2018-03-05,02:00,900.9
2018-03-05,03:00,894.6
2018-03-05,04:00,897.9
2018-03-05,05:00,895.5
2018-03-05,06:00,927.3
2018-03-05,07:00,920.3
2018-03-05,08:00,859
2018-03-05,09:00,-999
2018-03-05,10:00,-999
2018-03-05,11:00,-999
2018-03-05,12:00,-999
2018-03-05,13:00,-999
2018-03-05,14:00,-999
2018-03-05,15:00,-999
2018-03-05,16:00,-999
2018-03-05,17:00,-999
2018-03-05,18:00,-999
2018-03-05,19:00,-999
2018-03-05,20:00,-999
2018-03-05,21:00,-999
2018-03-05,22:00,-999
2018-03-05,23:00,-999
2018-03-06,00:00,-999
2018-03-06,01:00,-999
2018-03-06,02:00,854
2018-03-06,03:00,860.3
2018-03-06,04:00,860.7
2018-03-06,05:00,888.7
2018-03-06,06:00,896.9
2018-03-06,07:00,888.7
2018-03-06,08:00,-999
2018-03-06,09:00,-999
2018-03-06,10:00,-999
2018-03-06,11:00,-999
2018-03-06,12:00,-999
2018-03-06,13:00,-999
2018-03-06,14:00,-999
2018-03-06,15:00,-999
2018-03-06,16:00,-999
2018-03-06,17:00,-999
2018-03-06,18:00,-999
2018-03-06,19:00,-999
2018-03-06,20:00,854.4
2018-03-06,21:00,866.2
2018-03-06,22:00,882.6
2018-03-06,23:00,889.9
2018-03-07,00:00,894.7
2018-03-07,01:00,892
2018-03-07,02:00,897.5
2018-03-07,03:00,904.3
2018-03-07,04:00,895.3
2018-03-07,05:00,882.1
2018-03-07,06:00,883.8
2018-03-07,07:00,876.5
2018-03-07,08:00,-999
2018-03-07,09:00,-999
2018-03-07,10:00,-999
2018-03-07,11:00,-999
2018-03-07,12:00,-999
2018-03-07,13:00,-999
2018-03-07,14:00,-999
2018-03-07,15:00,-999
2018-03-07,16:00,-999
2018-03-07,17:00,-999
2018-03-07,18:00,-999
2018-03-07,19:00,-999
2018-03-07,20:00,-999
2018-03-07,21:00,-999
2018-03-07,22:00,860.4
2018-03-07,23:00,867.4
2018-03-08,00:00,871.7
2018-03-08,01:00,882.9
2018-03-08,02:00,885.9
2018-03-08,03:00,896.7
2018-03-08,04:00,891.9
2018-03-08,05:00,886
2018-03-08,06:00,894.6
2018-03-08,07:00,890.9
2018-03-08,08:00,-999
2018-03-08,09:00,-999
2018-03-08,10:00,-999
2018-03-08,11:00,-999
2018-03-08,12:00,-999
2018-03-08,13:00,-999
2018-03-08,14:00,-999
2018-03-08,15:00,-999
2018-03-08,16:00,-999
2018-03-08,17:00,-999
2018-03-08,18:00,-999
2018-03-08,19:00,-999
2018-03-08,20:00,-999
2018-03-08,21:00,-999
2018-03-08,22:00,-999
2018-03-08,23:00,874.2
2018-03-09,00:00,883.9
2018-03-09,01:00,874.2
2018-03-09,02:00,-999
2018-03-09,03:00,910.5
2018-03-09,04:00,917.4
2018-03-09,05:00,904.6
2018-03-09,06:00,903.7
2018-03-09,07:00,972.9
2018-03-09,08:00,970
2018-03-09,09:00,962.4
2018-03-09,10:00,951.6
2018-03-09,11:00,992.8
2018-03-09,12:00,990.7
2018-03-09,13:00,963.7
2018-03-09,14:00,928.6
2018-03-09,15:00,899.1
2018-03-09,16:00,882.6
2018-03-09,17:00,903.3
2018-03-09,18:00,914.9
2018-03-09,19:00,949.6
2018-03-09,20:00,946
2018-03-09,21:00,946.3
2018-03-09,22:00,949.4
2018-03-09,23:00,944.9
2018-03-10,00:00,942
2018-03-10,01:00,947.6
2018-03-10,02:00,960.1
2018-03-10,03:00,970.6
2018-03-10,04:00,968.9
2018-03-10,05:00,973.3
2018-03-10,06:00,972
2018-03-10,07:00,974.2
2018-03-10,08:00,951.2
2018-03-10,09:00,899.3
2018-03-10,10:00,-999
2018-03-10,11:00,-999
2018-03-10,12:00,-999
2018-03-10,13:00,-999
2018-03-10,14:00,-999
2018-03-10,15:00,-999
2018-03-10,16:00,-999
2018-03-10,17:00,-999
2018-03-10,18:00,-999
2018-03-10,19:00,-999
2018-03-10,20:00,872.9
2018-03-10,21:00,893.1
2018-03-10,22:00,925.1
2018-03-10,23:00,945.9
2018-03-11,00:00,951.5
2018-03-11,01:00,965.6
2018-03-11,02:00,954.9
2018-03-11,03:00,969.8
2018-03-11,04:00,987.9
2018-03-11,05:00,974.6
2018-03-11,06:00,996.9
2018-03-11,07:00,990.8
2018-03-11,08:00,902.6
2018-03-11,09:00,-999
2018-03-11,10:00,-999
2018-03-11,11:00,-999
2018-03-11,12:00,-999
2018-03-11,13:00,-999
2018-03-11,14:00,-999
2018-03-11,15:00,-999
2018-03-11,16:00,-999
2018-03-11,17:00,-999
2018-03-11,18:00,-999
2018-03-11,19:00,-999
2018-03-11,20:00,-999
2018-03-11,21:00,-999
2018-03-11,22:00,888.3
2018-03-11,23:00,905
2018-03-12,00:00,927.2
2018-03-12,01:00,934.4
2018-03-12,02:00,941.7
2018-03-12,03:00,941.9
2018-03-12,04:00,945.7
2018-03-12,05:00,938.6
2018-03-12,06:00,946.8
2018-03-12,07:00,942.9
2018-03-12,08:00,859.8
2018-03-12,09:00,-999
2018-03-12,10:00,-999
2018-03-12,11:00,-999
2018-03-12,12:00,-999
2018-03-12,13:00,-999
2018-03-12,14:00,-999
2018-03-12,15:00,-999
2018-03-12,16:00,-999
2018-03-12,17:00,-999
2018-03-12,18:00,-999
2018-03-12,19:00,853.1
2018-03-12,20:00,868.6
2018-03-12,21:00,898.6
2018-03-12,22:00,907.7
2018-03-12,23:00,905.8
2018-03-13,00:00,914.1
2018-03-13,01:00,906.1
2018-03-13,02:00,902.5
2018-03-13,03:00,909.8
2018-03-13,04:00,912.8
2018-03-13,05:00,924.5
2018-03-13,06:00,936.1
2018-03-13,07:00,931.1
2018-03-13,08:00,870
2018-03-13,09:00,-999
2018-03-13,10:00,-999
2018-03-13,11:00,-999
2018-03-13,12:00,-999
2018-03-13,13:00,-999
2018-03-13,14:00,-999
2018-03-13,15:00,911.6
2018-03-13,16:00,876.1
2018-03-13,17:00,-999
2018-03-13,18:00,-999
2018-03-13,19:00,871.7
2018-03-13,20:00,874.3
2018-03-13,21:00,884
2018-03-13,22:00,900.5
2018-03-13,23:00,908.7
2018-03-14,00:00,901.7
2018-03-14,01:00,909.1
2018-03-14,02:00,919
2018-03-14,03:00,908
2018-03-14,04:00,911.8
2018-03-14,05:00,916.2
2018-03-14,06:00,932.5
2018-03-14,07:00,928.9
2018-03-14,08:00,858
2018-03-14,09:00,-999
2018-03-14,10:00,-999
2018-03-14,11:00,-999
2018-03-14,12:00,-999
2018-03-14,13:00,-999
2018-03-14,14:00,-999
2018-03-14,15:00,-999
2018-03-14,16:00,-999
2018-03-14,17:00,-999
2018-03-14,18:00,-999
2018-03-14,19:00,-999
2018-03-14,20:00,-999
2018-03-14,21:00,-999
2018-03-14,22:00,855.5
2018-03-14,23:00,866
2018-03-15,00:00,879.5
2018-03-15,01:00,877.5
2018-03-15,02:00,870.2
2018-03-15,03:00,861
2018-03-15,04:00,863.4
2018-03-15,05:00,884.4
2018-03-15,06:00,890.9
2018-03-15,07:00,890.6
2018-03-15,08:00,-999
2018-03-15,09:00,-999
2018-03-15,10:00,-999
2018-03-15,11:00,-999
2018-03-15,12:00,-999
2018-03-15,13:00,-999
2018-03-15,14:00,-999
2018-03-15,15:00,-999
2018-03-15,16:00,-999
2018-03-15,17:00,-999
2018-03-15,18:00,-999
2018-03-15,19:00,-999
2018-03-15,20:00,-999
2018-03-15,21:00,856
2018-03-15,22:00,868.2
2018-03-15,23:00,877.4
2018-03-16,00:00,897
2018-03-16,01:00,917.6
2018-03-16,02:00,923.8
2018-03-16,03:00,930.7
2018-03-16,04:00,939.9
2018-03-16,05:00,939.3
2018-03-16,06:00,947.2
2018-03-16,07:00,932.8
2018-03-16,08:00,875.4
2018-03-16,09:00,-999
2018-03-16,10:00,-999
2018-03-16,11:00,-999
2018-03-16,12:00,-999
2018-03-16,13:00,-999
2018-03-16,14:00,-999
2018-03-16,15:00,-999
2018-03-16,16:00,-999
2018-03-16,17:00,-999
2018-03-16,18:00,-999
2018-03-16,19:00,-999
2018-03-16,20:00,-999
2018-03-16,21:00,-999
2018-03-16,22:00,864.4
2018-03-16,23:00,884.7
2018-03-17,00:00,905.1
2018-03-17,01:00,913.6
2018-03-17,02:00,921
2018-03-17,03:00,930.4
2018-03-17,04:00,940.3
2018-03-17,05:00,941.9
2018-03-17,06:00,959
2018-03-17,07:00,957.9
2018-03-17,08:00,896.3
2018-03-17,09:00,-999
2018-03-17,10:00,-999
2018-03-17,11:00,-999
2018-03-17,12:00,-999
2018-03-17,13:00,-999
2018-03-17,14:00,-999
2018-03-17,15:00,-999
2018-03-17,16:00,-999
2018-03-17,17:00,-999
2018-03-17,18:00,-999
2018-03-17,19:00,-999
2018-03-17,20:00,-999
2018-03-17,21:00,863.3
2018-03-17,22:00,871.5
2018-03-17,23:00,878.1
2018-03-18,00:00,898.3
2018-03-18,01:00,900.5
2018-03-18,02:00,907.5
2018-03-18,03:00,910.4
2018-03-18,04:00,910.4
2018-03-18,05:00,911.3
2018-03-18,06:00,911.7
2018-03-18,07:00,904.6
2018-03-18,08:00,-999
2018-03-18,09:00,-999
2018-03-18,10:00,-999
2018-03-18,11:00,-999
2018-03-18,12:00,-999
2018-03-18,13:00,-999
2018-03-18,14:00,-999
2018-03-18,15:00,-999
2018-03-18,16:00,-999
2018-03-18,17:00,-999
2018-03-18,18:00,-999
2018-03-18,19:00,-999
2018-03-18,20:00,-999
2018-03-18,21:00,-999
2018-03-18,22:00,862.4
2018-03-18,23:00,877.4
2018-03-19,00:00,882.3
2018-03-19,01:00,889.1
2018-03-19,02:00,905.8
2018-03-19,03:00,916.1
2018-03-19,04:00,916.1
2018-03-19,05:00,919.2
2018-03-19,06:00,921.2
2018-03-19,07:00,912.8
2018-03-19,08:00,-999
2018-03-19,09:00,-999
2018-03-19,10:00,-999
2018-03-19,11:00,-999
2018-03-19,12:00,-999
2018-03-19,13:00,-999
2018-03-19,14:00,-999
2018-03-19,15:00,-999
2018-03-19,16:00,-999
2018-03-19,17:00,-999
2018-03-19,18:00,-999
2018-03-19,19:00,-999
2018-03-19,20:00,-999
2018-03-19,21:00,-999
2018-03-19,22:00,-999
2018-03-19,23:00,856.7
2018-03-20,00:00,867.5
2018-03-20,01:00,881.6
2018-03-20,02:00,883.5
2018-03-20,03:00,886.3
2018-03-20,04:00,889.7
2018-03-20,05:00,895.6
2018-03-20,06:00,916.7
2018-03-20,07:00,906.1
2018-03-20,08:00,-999
2018-03-20,09:00,-999
2018-03-20,10:00,-999
2018-03-20,11:00,-999
2018-03-20,12:00,-999
2018-03-20,13:00,-999
2018-03-20,14:00,-999
2018-03-20,15:00,-999
2018-03-20,16:00,943.8
2018-03-20,17:00,-999
2018-03-20,18:00,-999
2018-03-20,19:00,-999
2018-03-20,20:00,-999
2018-03-20,21:00,862.8
2018-03-20,22:00,877.1
2018-03-20,23:00,878.2
2018-03-21,00:00,887.9
2018-03-21,01:00,896.2
2018-03-21,02:00,895.4
2018-03-21,03:00,904.9
2018-03-21,04:00,906.4
2018-03-21,05:00,918.6
2018-03-21,06:00,913.7
2018-03-21,07:00,900.8
2018-03-21,08:00,-999
2018-03-21,09:00,-999
2018-03-21,10:00,-999
2018-03-21,11:00,-999
2018-03-21,12:00,-999
2018-03-21,13:00,-999
2018-03-21,14:00,-999
2018-03-21,15:00,-999
2018-03-21,16:00,-999
2018-03-21,17:00,-999
2018-03-21,18:00,-999
2018-03-21,19:00,-999
2018-03-21,20:00,876.8
2018-03-21,21:00,896.7
2018-03-21,22:00,914.7
2018-03-21,23:00,934.5
2018-03-22,00:00,933.8
2018-03-22,01:00,942.8
2018-03-22,02:00,950.6
2018-03-22,03:00,929.3
2018-03-22,04:00,923.7
2018-03-22,05:00,931.7
2018-03-22,06:00,938.2
2018-03-22,07:00,933.6
2018-03-22,08:00,867.8
2018-03-22,09:00,-999
2018-03-22,10:00,-999
2018-03-22,11:00,-999
2018-03-22,12:00,-999
2018-03-22,13:00,-999
2018-03-22,14:00,-999
2018-03-22,15:00,-999
2018-03-22,16:00,-999
2018-03-22,17:00,-999
2018-03-22,18:00,-999
2018-03-22,19:00,-999
2018-03-22,20:00,-999
2018-03-22,21:00,862.5
2018-03-22,22:00,885.1
2018-03-22,23:00,899.7
2018-03-23,00:00,909.6
2018-03-23,01:00,906
2018-03-23,02:00,915
2018-03-23,03:00,-999
2018-03-23,04:00,-999
2018-03-23,05:00,927.9
2018-03-23,06:00,929
2018-03-23,07:00,918.5
2018-03-23,08:00,-999
2018-03-23,09:00,-999
2018-03-23,10:00,-999
2018-03-23,11:00,-999
2018-03-23,12:00,-999
2018-03-23,13:00,-999
2018-03-23,14:00,-999
2018-03-23,15:00,-999
2018-03-23,16:00,-999
2018-03-23,17:00,-999
2018-03-23,18:00,-999
2018-03-23,19:00,-999
2018-03-23,20:00,-999
2018-03-23,21:00,850.4
2018-03-23,22:00,-999
2018-03-23,23:00,858.9
2018-03-24,00:00,865.1
2018-03-24,01:00,871.8
2018-03-24,02:00,889.6
2018-03-24,03:00,891.5
2018-03-24,04:00,899.9
2018-03-24,05:00,915.3
2018-03-24,06:00,919.9
2018-03-24,07:00,913.6
2018-03-24,08:00,-999
2018-03-24,09:00,-999
2018-03-24,10:00,-999
2018-03-24,11:00,-999
2018-03-24,12:00,-999
2018-03-24,13:00,-999
2018-03-24,14:00,-999
2018-03-24,15:00,-999
2018-03-24,16:00,-999
2018-03-24,17:00,-999
2018-03-24,18:00,-999
2018-03-24,19:00,-999
2018-03-24,20:00,-999
2018-03-24,21:00,-999
2018-03-24,22:00,851.6
2018-03-24,23:00,856.5
2018-03-25,00:00,864.8
2018-03-25,01:00,874.6
2018-03-25,02:00,879.8
2018-03-25,03:00,910.4
2018-03-25,04:00,918.2
2018-03-25,05:00,915.3
2018-03-25,06:00,925.3
2018-03-25,07:00,906
2018-03-25,08:00,-999
2018-03-25,09:00,-999
2018-03-25,10:00,-999
2018-03-25,11:00,-999
2018-03-25,12:00,-999
2018-03-25,13:00,-999
2018-03-25,14:00,-999
2018-03-25,15:00,-999
2018-03-25,16:00,856.1
2018-03-25,17:00,858.2
2018-03-25,18:00,-999
2018-03-25,19:00,853.2
2018-03-25,20:00,862.9
2018-03-25,21:00,878
2018-03-25,22:00,886.3
2018-03-25,23:00,890.7
2018-03-26,00:00,891.9
2018-03-26,01:00,894.8
2018-03-26,02:00,894.6
2018-03-26,03:00,882.2
2018-03-26,04:00,898.5
2018-03-26,05:00,896.7
2018-03-26,06:00,901.1
2018-03-26,07:00,887.8
2018-03-26,08:00,-999
2018-03-26,09:00,-999
2018-03-26,10:00,-999
2018-03-26,11:00,-999
2018-03-26,12:00,-999
2018-03-26,13:00,-999
2018-03-26,14:00,-999
2018-03-26,15:00,-999
2018-03-26,16:00,-999
2018-03-26,17:00,-999
2018-03-26,18:00,-999
2018-03-26,19:00,-999
2018-03-26,20:00,-999
2018-03-26,21:00,-999
2018-03-26,22:00,850.3
2018-03-26,23:00,-999
2018-03-27,00:00,858.7
2018-03-27,01:00,858.5
2018-03-27,02:00,867.5
2018-03-27,03:00,881.7
2018-03-27,04:00,900.2
2018-03-27,05:00,909.5
2018-03-27,06:00,909.9
2018-03-27,07:00,890.8
2018-03-27,08:00,-999
2018-03-27,09:00,-999
2018-03-27,10:00,-999
2018-03-27,11:00,-999
2018-03-27,12:00,-999
2018-03-27,13:00,-999
2018-03-27,14:00,-999
2018-03-27,15:00,-999
2018-03-27,16:00,-999
2018-03-27,17:00,853.6
2018-03-27,18:00,-999
2018-03-27,19:00,-999
2018-03-27,20:00,858.2
2018-03-27,21:00,869.1
2018-03-27,22:00,880.1
2018-03-27,23:00,895.6
2018-03-28,00:00,903.9
2018-03-28,01:00,908.4
2018-03-28,02:00,908.6
2018-03-28,03:00,911.3
2018-03-28,04:00,916.8
2018-03-28,05:00,922.3
2018-03-28,06:00,921.1
2018-03-28,07:00,916.9
2018-03-28,08:00,857.6
2018-03-28,09:00,-999
2018-03-28,10:00,-999
2018-03-28,11:00,-999
2018-03-28,12:00,-999
2018-03-28,13:00,-999
2018-03-28,14:00,-999
2018-03-28,15:00,-999
2018-03-28,16:00,-999
2018-03-28,17:00,-999
2018-03-28,18:00,-999
2018-03-28,19:00,-999
2018-03-28,20:00,-999
2018-03-28,21:00,-999
2018-03-28,22:00,850.6
2018-03-28,23:00,865.7
2018-03-29,00:00,870.8
2018-03-29,01:00,879.4
2018-03-29,02:00,883.5
2018-03-29,03:00,875.2
2018-03-29,04:00,876.7
2018-03-29,05:00,899.1
2018-03-29,06:00,893.1
2018-03-29,07:00,875.7
2018-03-29,08:00,-999
2018-03-29,09:00,-999
2018-03-29,10:00,-999
2018-03-29,11:00,-999
2018-03-29,12:00,-999
2018-03-29,13:00,-999
2018-03-29,14:00,-999
2018-03-29,15:00,-999
2018-03-29,16:00,-999
2018-03-29,17:00,-999
2018-03-29,18:00,-999
2018-03-29,19:00,-999
2018-03-29,20:00,-999
2018-03-29,21:00,-999
2018-03-29,22:00,-999
2018-03-29,23:00,853.3
2018-03-30,00:00,863.6
2018-03-30,01:00,865.4
2018-03-30,02:00,867.1
2018-03-30,03:00,879.9
2018-03-30,04:00,884.7
2018-03-30,05:00,889.1
2018-03-30,06:00,886.1
2018-03-30,07:00,879.7
2018-03-30,08:00,-999
2018-03-30,09:00,-999
2018-03-30,10:00,-999
2018-03-30,11:00,-999
2018-03-30,12:00,-999
2018-03-30,13:00,-999
2018-03-30,14:00,-999
2018-03-30,15:00,-999
2018-03-30,16:00,853.1
2018-03-30,17:00,-999
2018-03-30,18:00,-999
2018-03-30,19:00,-999
2018-03-30,20:00,852.7
2018-03-30,21:00,882.6
2018-03-30,22:00,895.7
2018-03-30,23:00,898.9
2018-03-31,00:00,898.6
2018-03-31,01:00,891.6
2018-03-31,02:00,907.1
2018-03-31,03:00,905.9
2018-03-31,04:00,909.2
2018-03-31,05:00,901.9
2018-03-31,06:00,902.4
2018-03-31,07:00,890.4
2018-03-31,08:00,-999
2018-03-31,09:00,-999
2018-03-31,10:00,-999
2018-03-31,11:00,-999
2018-03-31,12:00,-999
2018-03-31,13:00,-999
2018-03-31,14:00,880.6
2018-03-31,15:00,852.1
2018-03-31,16:00,-999
2018-03-31,17:00,-999
2018-03-31,18:00,-999
2018-03-31,19:00,879.4
2018-03-31,20:00,900.4
2018-03-31,21:00,909.1
2018-03-31,22:00,909.7
2018-03-31,23:00,923.7
